Time,TemperatureF,DewpointF,PressureIn,WindDirection,WindDirectionDegrees,WindSpeedMPH,WindSpeedGustMPH,Humidity,HourlyPrecipIn,Conditions,Clouds,dailyrainin,SolarRadiationWatts/m^2,SoftwareType,DateUTC
2013-02-04 00:02:00,21.8,14.2,29.64,NW,306,0.0,0.0,72,0.00,CLR,,0.00,0.0,WeatherDisplay:10.37,2013-02-04 05:02:00,
2013-02-04 00:03:00,21.8,13.8,29.64,NW,306,0.0,0.0,71,0.00,CLR,,0.00,0.0,WeatherDisplay:10.37,2013-02-04 05:03:00,
2013-02-04 00:08:00,21.5,13.9,29.63,NW,306,0.0,0.0,72,0.00,CLR,,0.00,0.0,WeatherDisplay:10.37,2013-02-04 05:08:00,
2013-02-04 00:13:00,21.2,13.9,29.63,NW,306,0.0,0.0,73,0.00,CLR,,0.00,0.0,WeatherDisplay:10.37,2013-02-04 05:13:00,
2013-02-04 00:18:00,20.9,13.6,29.63,NW,306,0.0,0.0,73,0.00,CLR,,0.00,0.0,WeatherDisplay:10.37,2013-02-04 05:18:00,
2013-02-04 00:23:00,20.6,13.6,29.63,NW,306,0.0,0.0,74,0.00,CLR,,0.00,0.0,WeatherDisplay:10.37,2013-02-04 05:23:00,
2013-02-04 00:28:00,20.4,13.4,29.63,NW,306,0.0,0.0,74,0.00,CLR,,0.00,0.0,WeatherDisplay:10.37,2013-02-04 05:28:00,
2013-02-04 00:33:00,20.2,13.2,29.63,NW,306,0.0,0.0,74,0.00,CLR,,0.00,0.0,WeatherDisplay:10.37,2013-02-04 05:33:00,
2013-02-04 00:38:00,19.9,13.3,29.62,NW,306,0.0,0.0,75,0.00,CLR,,0.00,0.0,WeatherDisplay:10.37,2013-02-04 05:38:00,
2013-02-04 00:43:00,19.7,13.1,29.62,NW,306,0.0,0.0,75,0.00,CLR,,0.00,0.0,WeatherDisplay:10.37,2013-02-04 05:43:00,
2013-02-04 00:48:00,19.7,13.4,29.62,NW,306,0.0,0.0,76,0.00,CLR,,0.00,0.0,WeatherDisplay:10.37,2013-02-04 05:48:00,
2013-02-04 00:53:00,19.5,13.2,29.62,NW,306,0.0,0.0,76,0.00,CLR,,0.00,0.0,WeatherDisplay:10.37,2013-02-04 05:53:00,
2013-02-04 00:58:00,19.5,13.5,29.62,NW,306,0.0,0.0,77,0.00,CLR,,0.00,0.0,WeatherDisplay:10.37,2013-02-04 05:58:00,
2013-02-04 01:03:00,19.5,13.5,29.62,NW,306,0.0,0.0,77,0.00,CLR,,0.00,0.0,WeatherDisplay:10.37,2013-02-04 06:03:00,
2013-02-04 01:08:00,19.5,13.8,29.62,NW,306,0.0,0.0,78,0.00,CLR,,0.00,0.0,WeatherDisplay:10.37,2013-02-04 06:08:00,
2013-02-04 01:13:00,19.5,13.8,29.62,NW,306,0.0,0.0,78,0.00,CLR,,0.00,0.0,WeatherDisplay:10.37,2013-02-04 06:13:00,
2013-02-04 01:18:00,19.5,13.8,29.62,NW,306,0.0,0.0,78,0.00,CLR,,0.00,0.0,WeatherDisplay:10.37,2013-02-04 06:18:00,
2013-02-04 01:23:00,19.5,13.8,29.62,NW,306,0.0,0.0,78,0.00,CLR,,0.00,0.0,WeatherDisplay:10.37,2013-02-04 06:23:00,
2013-02-04 01:28:00,19.5,14.0,29.62,NW,306,0.0,0.0,79,0.00,CLR,,0.00,0.0,WeatherDisplay:10.37,2013-02-04 06:28:00,
2013-02-04 01:33:00,19.5,14.0,29.62,NW,306,0.0,0.0,79,0.00,CLR,,0.00,0.0,WeatherDisplay:10.37,2013-02-04 06:33:00,
2013-02-04 01:38:00,19.6,14.1,29.61,NW,306,0.0,0.0,79,0.00,CLR,,0.00,0.0,WeatherDisplay:10.37,2013-02-04 06:38:00,
2013-02-04 01:43:00,19.5,14.3,29.61,NW,306,0.0,0.0,80,0.00,CLR,,0.00,0.0,WeatherDisplay:10.37,2013-02-04 06:43:00,
2013-02-04 01:48:00,19.5,14.3,29.61,NW,306,0.0,0.0,80,0.00,CLR,,0.00,0.0,WeatherDisplay:10.37,2013-02-04 06:48:00,
2013-02-04 01:53:00,19.5,14.3,29.62,NW,306,0.0,0.0,80,0.00,CLR,,0.00,0.0,WeatherDisplay:10.37,2013-02-04 06:53:00,
2013-02-04 01:58:00,19.6,14.1,29.62,NW,306,0.0,0.0,79,0.00,CLR,,0.00,0.0,WeatherDisplay:10.37,2013-02-04 06:58:00,
2013-02-04 02:03:00,19.7,14.5,29.62,NW,306,0.0,0.0,80,0.00,CLR,,0.00,0.0,WeatherDisplay:10.37,2013-02-04 07:03:00,
2013-02-04 02:08:00,19.7,14.8,29.61,NW,306,0.0,0.0,81,0.00,CLR,,0.00,0.0,WeatherDisplay:10.37,2013-02-04 07:08:00,
2013-02-04 02:13:00,19.7,15.1,29.61,NW,306,0.0,0.0,82,0.00,CLR,,0.00,0.0,WeatherDisplay:10.37,2013-02-04 07:13:00,
2013-02-04 02:18:00,19.7,15.1,29.61,NW,306,0.0,0.0,82,0.00,CLR,,0.00,0.0,WeatherDisplay:10.37,2013-02-04 07:18:00,
2013-02-04 02:23:00,19.7,15.1,29.61,NW,306,0.0,0.0,82,0.00,CLR,,0.00,0.0,WeatherDisplay:10.37,2013-02-04 07:23:00,
2013-02-04 02:28:00,19.7,15.1,29.61,NW,306,0.0,0.0,82,0.00,CLR,,0.00,0.0,WeatherDisplay:10.37,2013-02-04 07:28:00,
2013-02-04 02:33:00,19.7,15.1,29.61,NW,306,0.0,0.0,82,0.00,CLR,,0.00,0.0,WeatherDisplay:10.37,2013-02-04 07:33:00,
2013-02-04 02:38:00,19.7,15.1,29.60,NW,306,0.0,0.0,82,0.00,CLR,,0.00,0.0,WeatherDisplay:10.37,2013-02-04 07:38:00,
2013-02-04 02:43:00,19.7,15.1,29.60,NW,306,0.0,0.0,82,0.00,CLR,,0.00,0.0,WeatherDisplay:10.37,2013-02-04 07:43:00,
2013-02-04 02:48:00,19.7,15.1,29.60,NW,306,0.0,0.0,82,0.00,CLR,,0.00,0.0,WeatherDisplay:10.37,2013-02-04 07:48:00,
2013-02-04 02:53:00,19.7,15.1,29.60,NW,306,0.0,0.0,82,0.00,CLR,,0.00,0.0,WeatherDisplay:10.37,2013-02-04 07:53:00,
2013-02-04 02:58:00,19.7,15.1,29.60,NW,306,0.0,0.0,82,0.00,CLR,,0.00,0.0,WeatherDisplay:10.37,2013-02-04 07:58:00,
2013-02-04 03:03:00,19.9,15.6,29.60,NW,306,0.0,0.0,83,0.00,CLR,,0.00,0.0,WeatherDisplay:10.37,2013-02-04 08:03:00,
2013-02-04 03:09:00,20.1,15.8,29.59,NW,306,0.0,0.0,83,0.00,CLR,,0.00,0.0,WeatherDisplay:10.37,2013-02-04 08:09:00,
2013-02-04 03:14:00,20.0,15.7,29.59,NW,306,0.0,0.0,83,0.00,CLR,,0.00,0.0,WeatherDisplay:10.37,2013-02-04 08:14:00,
2013-02-04 03:19:00,20.0,15.7,29.59,NW,306,0.0,0.0,83,0.00,CLR,,0.00,0.0,WeatherDisplay:10.37,2013-02-04 08:19:00,
2013-02-04 03:24:00,19.9,15.6,29.60,NW,306,0.0,0.0,83,0.00,CLR,,0.00,0.0,WeatherDisplay:10.37,2013-02-04 08:24:00,
2013-02-04 03:29:00,19.7,15.4,29.60,NW,306,0.0,0.0,83,0.00,CLR,,0.00,0.0,WeatherDisplay:10.37,2013-02-04 08:29:00,
2013-02-04 03:34:00,19.7,15.4,29.60,NW,306,0.0,0.0,83,0.00,CLR,,0.00,0.0,WeatherDisplay:10.37,2013-02-04 08:34:00,
2013-02-04 03:39:00,19.7,15.4,29.59,NW,306,0.0,0.0,83,0.00,CLR,,0.00,0.0,WeatherDisplay:10.37,2013-02-04 08:39:00,
2013-02-04 03:44:00,19.7,15.4,29.59,NW,306,0.0,0.0,83,0.00,CLR,,0.00,0.0,WeatherDisplay:10.37,2013-02-04 08:44:00,
2013-02-04 03:49:00,19.7,15.4,29.59,NW,306,0.0,0.0,83,0.00,CLR,,0.00,0.0,WeatherDisplay:10.37,2013-02-04 08:49:00,
2013-02-04 03:54:00,19.7,15.4,29.59,NW,306,0.0,0.0,83,0.00,CLR,,0.00,0.0,WeatherDisplay:10.37,2013-02-04 08:54:00,
2013-02-04 03:59:00,19.7,15.4,29.59,NW,306,0.0,0.0,83,0.00,CLR,,0.00,0.0,WeatherDisplay:10.37,2013-02-04 08:59:00,
2013-02-04 04:04:00,19.7,15.4,29.59,NW,306,0.0,0.0,83,0.00,CLR,,0.00,0.0,WeatherDisplay:10.37,2013-02-04 09:04:00,
2013-02-04 04:09:00,19.7,15.4,29.59,NW,306,0.0,0.0,83,0.00,CLR,,0.00,0.0,WeatherDisplay:10.37,2013-02-04 09:09:00,
2013-02-04 04:14:00,19.6,15.3,29.59,NW,306,1.1,1.1,83,0.00,CLR,,0.00,0.0,WeatherDisplay:10.37,2013-02-04 09:14:00,
2013-02-04 04:19:00,19.5,15.2,29.59,NW,306,0.0,0.0,83,0.00,CLR,,0.00,0.0,WeatherDisplay:10.37,2013-02-04 09:19:00,
2013-02-04 04:24:00,19.4,15.1,29.59,NW,306,0.0,0.0,83,0.00,CLR,,0.00,0.0,WeatherDisplay:10.37,2013-02-04 09:24:00,
2013-02-04 04:29:00,19.3,15.0,29.59,NW,306,0.0,0.0,83,0.00,CLR,,0.00,0.0,WeatherDisplay:10.37,2013-02-04 09:29:00,
2013-02-04 04:34:00,19.3,15.0,29.59,NW,306,0.0,0.0,83,0.00,CLR,,0.00,0.0,WeatherDisplay:10.37,2013-02-04 09:34:00,
2013-02-04 04:39:00,19.1,14.8,29.59,NW,306,0.0,0.0,83,0.00,CLR,,0.00,0.0,WeatherDisplay:10.37,2013-02-04 09:39:00,
2013-02-04 04:44:00,19.1,14.8,29.59,NW,306,0.0,0.0,83,0.00,CLR,,0.00,0.0,WeatherDisplay:10.37,2013-02-04 09:44:00,
2013-02-04 04:49:00,19.0,15.0,29.59,NW,306,0.0,0.0,84,0.00,CLR,,0.00,0.0,WeatherDisplay:10.37,2013-02-04 09:49:00,
2013-02-04 04:54:00,18.9,14.9,29.58,NW,306,0.0,0.0,84,0.00,CLR,,0.00,0.0,WeatherDisplay:10.37,2013-02-04 09:54:00,
2013-02-04 04:59:00,18.8,14.8,29.58,NW,306,0.0,0.0,84,0.00,CLR,,0.00,0.0,WeatherDisplay:10.37,2013-02-04 09:59:00,
2013-02-04 05:04:00,18.7,14.7,29.58,NW,306,2.3,2.3,84,0.00,CLR,,0.00,0.0,WeatherDisplay:10.37,2013-02-04 10:04:00,
2013-02-04 05:09:00,18.6,14.6,29.58,NW,306,0.0,0.0,84,0.00,CLR,,0.00,0.0,WeatherDisplay:10.37,2013-02-04 10:09:00,
2013-02-04 05:14:00,18.6,14.6,29.58,NW,306,0.0,0.0,84,0.00,CLR,,0.00,0.0,WeatherDisplay:10.37,2013-02-04 10:14:00,
2013-02-04 05:19:00,18.5,14.5,29.58,NW,306,0.0,0.0,84,0.00,CLR,,0.00,0.0,WeatherDisplay:10.37,2013-02-04 10:19:00,
2013-02-04 05:24:00,18.5,14.5,29.59,NW,306,0.0,0.0,84,0.00,CLR,,0.00,0.0,WeatherDisplay:10.37,2013-02-04 10:24:00,
2013-02-04 05:29:00,18.4,14.4,29.59,NW,306,0.0,0.0,84,0.00,CLR,,0.00,0.0,WeatherDisplay:10.37,2013-02-04 10:29:00,
2013-02-04 05:34:00,18.2,14.2,29.59,NW,306,0.0,0.0,84,0.00,CLR,,0.00,0.0,WeatherDisplay:10.37,2013-02-04 10:34:00,
2013-02-04 05:39:00,18.1,14.1,29.59,NW,306,0.0,0.0,84,0.00,CLR,,0.00,0.0,WeatherDisplay:10.37,2013-02-04 10:39:00,
2013-02-04 05:44:00,17.9,13.9,29.59,NW,306,0.0,0.0,84,0.00,CLR,,0.00,0.0,WeatherDisplay:10.37,2013-02-04 10:44:00,
2013-02-04 05:49:00,17.8,13.8,29.59,NW,306,0.0,0.0,84,0.00,CLR,,0.00,0.0,WeatherDisplay:10.37,2013-02-04 10:49:00,
2013-02-04 05:54:00,17.6,13.6,29.59,NW,306,0.0,0.0,84,0.00,CLR,,0.00,0.0,WeatherDisplay:10.37,2013-02-04 10:54:00,
2013-02-04 05:59:00,17.4,13.4,29.59,NW,306,0.0,0.0,84,0.00,CLR,,0.00,0.0,WeatherDisplay:10.37,2013-02-04 10:59:00,
2013-02-04 06:04:00,17.2,15.3,29.59,NW,306,0.0,0.0,92,0.00,CLR,,0.00,0.0,WeatherDisplay:10.37,2013-02-04 11:04:00,
2013-02-04 06:09:00,17.0,13.0,29.59,NW,306,0.0,0.0,84,0.00,CLR,,0.00,0.0,WeatherDisplay:10.37,2013-02-04 11:09:00,
2013-02-04 06:14:00,16.8,12.8,29.59,NW,306,0.0,0.0,84,0.00,CLR,,0.00,0.0,WeatherDisplay:10.37,2013-02-04 11:14:00,
2013-02-04 06:19:00,16.6,12.9,29.59,NW,306,0.0,0.0,85,0.00,CLR,,0.00,0.0,WeatherDisplay:10.37,2013-02-04 11:19:00,
2013-02-04 06:24:00,16.4,12.7,29.59,NW,306,0.0,0.0,85,0.00,CLR,,0.00,0.0,WeatherDisplay:10.37,2013-02-04 11:24:00,
2013-02-04 06:29:00,16.2,12.5,29.59,NW,306,0.0,0.0,85,0.00,CLR,,0.00,0.0,WeatherDisplay:10.37,2013-02-04 11:29:00,
2013-02-04 06:34:00,16.1,12.4,29.59,NW,306,0.0,0.0,85,0.00,CLR,,0.00,0.0,WeatherDisplay:10.37,2013-02-04 11:34:00,
2013-02-04 06:39:00,15.9,12.2,29.59,NW,306,0.0,0.0,85,0.00,CLR,,0.00,0.0,WeatherDisplay:10.37,2013-02-04 11:39:00,
2013-02-04 06:44:00,15.7,12.0,29.59,NW,306,0.0,0.0,85,0.00,CLR,,0.00,0.0,WeatherDisplay:10.37,2013-02-04 11:44:00,
2013-02-04 06:49:00,15.4,11.7,29.59,NW,306,0.0,0.0,85,0.00,CLR,,0.00,0.0,WeatherDisplay:10.37,2013-02-04 11:49:00,
2013-02-04 06:54:00,15.3,11.9,29.59,NW,306,0.0,0.0,86,0.00,CLR,,0.00,5.0,WeatherDisplay:10.37,2013-02-04 11:54:00,
2013-02-04 06:59:00,15.0,11.6,29.59,NW,306,0.0,0.0,86,0.00,CLR,,0.00,9.0,WeatherDisplay:10.37,2013-02-04 11:59:00,
2013-02-04 07:04:00,14.9,11.5,29.59,NW,306,0.0,0.0,86,0.00,CLR,,0.00,12.0,WeatherDisplay:10.37,2013-02-04 12:04:00,
2013-02-04 07:09:00,14.8,11.4,29.60,NW,306,0.0,0.0,86,0.00,CLR,,0.00,18.0,WeatherDisplay:10.37,2013-02-04 12:09:00,
2013-02-04 07:14:00,14.7,11.5,29.60,NW,306,0.0,0.0,87,0.00,FEW,,0.00,21.0,WeatherDisplay:10.37,2013-02-04 12:14:00,
2013-02-04 07:19:00,14.6,11.4,29.60,NW,306,2.3,2.3,87,0.00,SCT,,0.00,25.0,WeatherDisplay:10.37,2013-02-04 12:19:00,
2013-02-04 07:24:00,14.6,11.4,29.60,NW,306,0.0,0.0,87,0.00,SCT,,0.00,33.0,WeatherDisplay:10.37,2013-02-04 12:24:00,
2013-02-04 07:29:00,14.6,11.7,29.60,NW,306,0.0,0.0,88,0.00,SCT,,0.00,37.0,WeatherDisplay:10.37,2013-02-04 12:29:00,
2013-02-04 07:34:00,14.7,11.8,29.60,NW,306,1.1,1.1,88,0.00,SCT,,0.00,46.0,WeatherDisplay:10.37,2013-02-04 12:34:00,
2013-02-04 07:39:00,15.3,12.4,29.61,WNW,286,4.0,4.0,88,0.00,FEW,,0.00,56.0,WeatherDisplay:10.37,2013-02-04 12:39:00,
2013-02-04 07:44:00,17.0,14.3,29.61,WNW,286,3.5,3.5,89,0.00,FEW,,0.00,65.0,WeatherDisplay:10.37,2013-02-04 12:44:00,
2013-02-04 07:49:00,17.9,15.2,29.61,WNW,286,2.3,2.3,89,0.00,SCT,,0.00,65.0,WeatherDisplay:10.37,2013-02-04 12:49:00,
2013-02-04 07:54:00,18.7,15.7,29.60,WNW,285,2.3,2.7,88,0.00,SCT,,0.00,69.0,WeatherDisplay:10.37,2013-02-04 12:54:00,
2013-02-04 07:59:00,19.7,16.7,29.60,WNW,287,3.5,3.5,88,0.00,SCT,,0.00,77.0,WeatherDisplay:10.37,2013-02-04 12:59:00,
2013-02-04 08:04:00,20.1,16.6,29.60,WNW,292,1.1,0.0,86,0.00,SCT,,0.00,93.0,WeatherDisplay:10.37,2013-02-04 13:04:00,
2013-02-04 08:09:00,20.6,16.8,29.60,NW,311,2.3,2.3,85,0.00,SCT,,0.00,97.0,WeatherDisplay:10.37,2013-02-04 13:09:00,
2013-02-04 08:14:00,21.1,17.0,29.60,WNW,291,6.0,6.0,84,0.00,SCT,,0.00,97.0,WeatherDisplay:10.37,2013-02-04 13:14:00,
2013-02-04 08:19:00,21.5,16.9,29.60,WNW,288,5.8,5.8,82,0.00,SCT,,0.00,98.0,WeatherDisplay:10.37,2013-02-04 13:19:00,
2013-02-04 08:24:00,21.9,16.7,29.60,WNW,288,0.0,0.0,80,0.00,SCT,,0.00,104.0,WeatherDisplay:10.37,2013-02-04 13:24:00,
2013-02-04 08:29:00,22.4,16.6,29.60,WNW,288,1.0,0.0,78,0.00,CLR,,0.00,227.0,WeatherDisplay:10.37,2013-02-04 13:29:00,
2013-02-04 08:34:00,22.9,16.5,29.60,WNW,288,0.0,0.0,76,0.00,CLR,,0.00,236.0,WeatherDisplay:10.37,2013-02-04 13:34:00,
2013-02-04 08:39:00,23.0,16.3,29.60,WNW,288,0.0,0.0,75,0.00,CLR,,0.00,239.0,WeatherDisplay:10.37,2013-02-04 13:39:00,
2013-02-04 08:44:00,23.4,15.7,29.60,WNW,287,7.0,7.0,72,0.00,CLR,,0.00,237.0,WeatherDisplay:10.37,2013-02-04 13:44:00,
2013-02-04 08:49:00,23.5,15.1,29.60,WNW,288,3.5,3.5,70,0.00,CLR,,0.00,265.0,WeatherDisplay:10.37,2013-02-04 13:49:00,
2013-02-04 08:54:00,23.4,14.7,29.60,WNW,295,13.8,13.8,69,0.00,FEW,,0.00,199.0,WeatherDisplay:10.37,2013-02-04 13:54:00,
2013-02-04 08:59:00,23.2,14.5,29.60,WNW,303,5.8,5.8,69,0.00,BKN,,0.00,77.0,WeatherDisplay:10.37,2013-02-04 13:59:00,
2013-02-04 09:04:00,23.1,14.1,29.60,WNW,298,5.8,5.8,68,0.00,BKN,,0.00,67.0,WeatherDisplay:10.37,2013-02-04 14:04:00,
2013-02-04 09:09:00,23.0,14.0,29.60,WNW,292,15.0,15.0,68,0.00,BKN,,0.00,58.0,WeatherDisplay:10.37,2013-02-04 14:09:00,
2013-02-04 09:14:00,22.9,13.9,29.60,West,272,9.2,9.2,68,0.00,BKN,,0.00,65.0,WeatherDisplay:10.37,2013-02-04 14:14:00,
2013-02-04 09:19:00,22.9,13.6,29.60,West,264,3.5,3.5,67,0.00,BKN,,0.00,72.0,WeatherDisplay:10.37,2013-02-04 14:19:00,
2013-02-04 09:24:00,23.0,13.7,29.60,West,264,3.5,3.5,67,0.00,BKN,,0.00,105.0,WeatherDisplay:10.37,2013-02-04 14:24:00,
2013-02-04 09:29:00,23.3,13.6,29.60,West,263,5.0,5.0,66,0.00,BKN,,0.00,142.0,WeatherDisplay:10.37,2013-02-04 14:29:00,
2013-02-04 09:34:00,23.7,14.0,29.60,West,276,6.0,6.0,66,0.00,CLR,,0.00,330.0,WeatherDisplay:10.37,2013-02-04 14:34:00,
2013-02-04 09:39:00,23.9,13.8,29.60,WSW,258,11.5,11.5,65,0.00,BKN,,0.00,156.0,WeatherDisplay:10.37,2013-02-04 14:39:00,
2013-02-04 09:44:00,23.7,13.3,29.60,West,273,12.0,12.0,64,0.00,SCT,,0.00,209.0,WeatherDisplay:10.37,2013-02-04 14:44:00,
2013-02-04 09:49:00,23.5,12.7,29.60,WNW,298,11.5,11.5,63,0.00,SCT,,0.00,214.0,WeatherDisplay:10.37,2013-02-04 14:49:00,
2013-02-04 09:54:00,23.6,12.5,29.60,West,281,12.7,12.7,62,0.00,SCT,,0.00,192.0,WeatherDisplay:10.37,2013-02-04 14:54:00,
2013-02-04 09:59:00,23.3,11.1,29.60,WNW,287,15.0,15.0,59,0.00,SCT,,0.00,199.0,WeatherDisplay:10.37,2013-02-04 14:59:00,
2013-02-04 10:04:00,22.9,11.1,29.60,WNW,292,11.5,11.5,60,0.00,BKN,,0.00,155.0,WeatherDisplay:10.37,2013-02-04 15:04:00,
2013-02-04 10:09:00,22.7,10.9,29.60,NW,307,12.7,12.7,60,0.00,BKN,,0.00,139.0,WeatherDisplay:10.37,2013-02-04 15:09:00,
2013-02-04 10:14:00,22.7,10.5,29.60,WNW,296,4.0,4.0,59,0.00,BKN,,0.00,448.0,WeatherDisplay:10.37,2013-02-04 15:14:00,
2013-02-04 10:19:00,23.0,11.5,29.60,WNW,295,2.3,2.3,61,0.00,BKN,,0.00,153.0,WeatherDisplay:10.37,2013-02-04 15:19:00,
2013-02-04 10:24:00,23.4,11.6,29.60,WNW,295,2.0,4.0,60,0.00,SCT,,0.00,237.0,WeatherDisplay:10.37,2013-02-04 15:24:00,
2013-02-04 10:30:00,24.5,12.6,29.60,WNW,292,3.5,3.5,60,0.00,CLR,,0.00,469.0,WeatherDisplay:10.37,2013-02-04 15:30:00,
2013-02-04 10:34:00,25.0,11.5,29.60,WSW,247,7.0,14.0,56,0.00,CLR,,0.00,499.0,WeatherDisplay:10.37,2013-02-04 15:34:00,
2013-02-04 10:40:00,25.1,10.8,29.60,WSW,250,3.0,8.0,54,0.00,CLR,,0.00,536.0,WeatherDisplay:10.37,2013-02-04 15:40:00,
2013-02-04 10:45:00,25.4,10.2,29.60,West,279,5.0,16.0,52,0.00,CLR,,0.00,483.0,WeatherDisplay:10.37,2013-02-04 15:45:00,
2013-02-04 10:49:00,25.8,10.6,29.60,WNW,291,4.6,4.6,52,0.00,CLR,,0.00,494.0,WeatherDisplay:10.37,2013-02-04 15:49:00,
2013-02-04 10:54:00,25.9,9.8,29.59,West,278,5.0,9.0,50,0.00,CLR,,0.00,490.0,WeatherDisplay:10.37,2013-02-04 15:54:00,
2013-02-04 11:00:00,26.0,9.9,29.59,SW,233,5.8,5.8,50,0.00,CLR,,0.00,392.0,WeatherDisplay:10.37,2013-02-04 16:00:00,
2013-02-04 11:05:00,25.7,9.2,29.59,West,281,2.0,9.0,49,0.00,CLR,,0.00,526.0,WeatherDisplay:10.37,2013-02-04 16:05:00,
2013-02-04 11:09:00,25.3,8.8,29.59,West,278,3.0,8.0,49,0.00,SCT,,0.00,255.0,WeatherDisplay:10.37,2013-02-04 16:09:00,
2013-02-04 11:14:00,25.7,9.2,29.59,WNW,290,5.8,5.8,49,0.00,SCT,,0.00,239.0,WeatherDisplay:10.37,2013-02-04 16:14:00,
2013-02-04 11:19:00,25.9,8.4,29.59,West,278,3.5,3.5,47,0.00,CLR,,0.00,654.0,WeatherDisplay:10.37,2013-02-04 16:19:00,
2013-02-04 11:24:00,26.5,9.4,29.59,WNW,286,7.0,12.0,48,0.00,CLR,,0.00,538.0,WeatherDisplay:10.37,2013-02-04 16:24:00,
2013-02-04 11:30:00,26.4,8.9,29.59,West,266,6.9,6.9,47,0.00,SCT,,0.00,239.0,WeatherDisplay:10.37,2013-02-04 16:30:00,
2013-02-04 11:34:00,25.9,8.4,29.59,West,271,3.0,14.0,47,0.00,SCT,,0.00,234.0,WeatherDisplay:10.37,2013-02-04 16:34:00,
2013-02-04 11:39:00,26.1,9.1,29.58,WNW,296,11.5,11.5,48,0.00,CLR,,0.00,515.0,WeatherDisplay:10.37,2013-02-04 16:39:00,
2013-02-04 11:44:00,26.3,8.8,29.58,NW,319,4.6,4.6,47,0.00,CLR,,0.00,501.0,WeatherDisplay:10.37,2013-02-04 16:44:00,
2013-02-04 11:49:00,26.3,8.3,29.58,WSW,248,17.3,17.3,46,0.00,FEW,,0.00,332.0,WeatherDisplay:10.37,2013-02-04 16:49:00,
2013-02-04 11:54:00,26.4,8.9,29.57,West,279,9.0,15.0,47,0.00,CLR,,0.00,413.0,WeatherDisplay:10.37,2013-02-04 16:54:00,
2013-02-04 12:00:00,26.1,8.6,29.57,WNW,291,12.7,12.7,47,0.00,SCT,,0.00,257.0,WeatherDisplay:10.37,2013-02-04 17:00:00,
2013-02-04 12:04:00,26.2,8.7,29.57,WNW,284,3.0,12.0,47,0.00,SCT,,0.00,315.0,WeatherDisplay:10.37,2013-02-04 17:04:00,
2013-02-04 12:09:00,26.2,9.2,29.57,WNW,282,14.0,14.0,48,0.00,FEW,,0.00,306.0,WeatherDisplay:10.37,2013-02-04 17:09:00,
2013-02-04 12:14:00,26.0,8.0,29.57,West,277,11.5,11.5,46,0.00,SCT,,0.00,332.0,WeatherDisplay:10.37,2013-02-04 17:14:00,
2013-02-04 12:19:00,26.0,8.0,29.57,WNW,285,3.0,16.0,46,0.00,FEW,,0.00,366.0,WeatherDisplay:10.37,2013-02-04 17:19:00,
2013-02-04 12:24:00,25.8,7.8,29.57,West,278,5.0,13.0,46,0.00,BKN,,0.00,113.0,WeatherDisplay:10.37,2013-02-04 17:24:00,
2013-02-04 12:30:00,25.3,6.9,29.57,West,264,7.0,18.0,45,0.00,BKN,,0.00,165.0,WeatherDisplay:10.37,2013-02-04 17:30:00,
2013-02-04 12:34:00,25.1,7.2,29.57,WNW,282,10.0,21.0,46,0.00,BKN,,0.00,197.0,WeatherDisplay:10.37,2013-02-04 17:34:00,
2013-02-04 12:39:00,25.1,7.7,29.58,WNW,290,12.7,12.7,47,0.00,BKN,,0.00,72.0,WeatherDisplay:10.37,2013-02-04 17:39:00,
2013-02-04 12:44:00,25.1,7.2,29.58,West,266,15.0,15.0,46,0.00,BKN,,0.00,88.0,WeatherDisplay:10.37,2013-02-04 17:44:00,
2013-02-04 12:49:00,24.8,7.4,29.58,WNW,289,12.0,12.0,47,0.00,BKN,,0.00,104.0,WeatherDisplay:10.37,2013-02-04 17:49:00,
2013-02-04 12:55:00,24.9,8.0,29.58,WNW,292,11.5,11.5,48,0.00,BKN,,0.00,109.0,WeatherDisplay:10.37,2013-02-04 17:55:00,
2013-02-04 13:00:00,25.1,8.6,29.58,WNW,295,11.0,11.0,49,0.00,BKN,,0.00,116.0,WeatherDisplay:10.37,2013-02-04 18:00:00,
2013-02-04 13:05:00,25.2,8.7,29.58,WNW,287,9.0,20.0,49,0.00,BKN,,0.00,137.0,WeatherDisplay:10.37,2013-02-04 18:05:00,
2013-02-04 13:10:00,25.5,9.4,29.58,WNW,285,2.0,15.0,50,0.00,BKN,,0.00,167.0,WeatherDisplay:10.37,2013-02-04 18:10:00,
2013-02-04 13:15:00,25.9,9.8,29.58,WNW,288,10.0,17.0,50,0.00,BKN,,0.00,120.0,WeatherDisplay:10.37,2013-02-04 18:15:00,
2013-02-04 13:20:00,25.7,8.2,29.58,NW,322,3.5,3.5,47,0.00,BKN,,0.00,111.0,WeatherDisplay:10.37,2013-02-04 18:20:00,
2013-02-04 13:25:00,25.6,8.1,29.58,West,261,15.0,15.0,47,0.00,BKN,,0.00,90.0,WeatherDisplay:10.37,2013-02-04 18:25:00,
2013-02-04 13:30:00,25.6,7.7,29.58,West,262,10.4,10.4,46,0.00,BKN,,0.00,123.0,WeatherDisplay:10.37,2013-02-04 18:30:00,
2013-02-04 13:35:00,25.7,7.7,29.58,SW,222,7.0,7.0,46,0.00,FEW,,0.00,322.0,WeatherDisplay:10.37,2013-02-04 18:35:00,
2013-02-04 13:40:00,25.7,8.7,29.58,West,273,8.1,8.1,48,0.00,BKN,,0.00,167.0,WeatherDisplay:10.37,2013-02-04 18:40:00,
2013-02-04 13:45:00,25.7,7.7,29.58,WNW,300,15.0,15.0,46,0.00,SCT,,0.00,192.0,WeatherDisplay:10.37,2013-02-04 18:45:00,
2013-02-04 13:50:00,25.6,7.7,29.58,WNW,288,13.8,13.8,46,0.00,BKN,,0.00,132.0,WeatherDisplay:10.37,2013-02-04 18:50:00,
2013-02-04 13:55:00,25.6,8.6,29.58,West,261,15.0,15.0,48,0.00,BKN,,0.00,134.0,WeatherDisplay:10.37,2013-02-04 18:55:00,
2013-02-04 14:00:00,25.6,8.6,29.58,WSW,251,6.9,6.9,48,0.00,BKN,,0.00,160.0,WeatherDisplay:10.37,2013-02-04 19:00:00,
2013-02-04 14:05:00,25.9,8.9,29.58,WNW,290,13.8,13.8,48,0.00,SCT,,0.00,207.0,WeatherDisplay:10.37,2013-02-04 19:05:00,
2013-02-04 14:10:00,26.4,8.9,29.58,WNW,288,9.2,9.2,47,0.00,BKN,,0.00,141.0,WeatherDisplay:10.37,2013-02-04 19:10:00,
2013-02-04 14:15:00,26.3,8.3,29.58,West,269,11.0,11.0,46,0.00,BKN,,0.00,120.0,WeatherDisplay:10.37,2013-02-04 19:15:00,
2013-02-04 14:20:00,26.2,7.2,29.58,WNW,298,15.0,15.0,44,0.00,BKN,,0.00,118.0,WeatherDisplay:10.37,2013-02-04 19:20:00,
2013-02-04 14:25:00,26.2,6.2,29.58,West,275,11.5,11.5,42,0.00,BKN,,0.00,130.0,WeatherDisplay:10.37,2013-02-04 19:25:00,
2013-02-04 14:30:00,26.0,4.9,29.58,West,267,11.5,11.5,40,0.00,BKN,,0.00,120.0,WeatherDisplay:10.37,2013-02-04 19:30:00,
2013-02-04 14:35:00,25.8,5.3,29.58,WSW,251,19.6,19.6,41,0.00,BKN,,0.00,54.0,WeatherDisplay:10.37,2013-02-04 19:35:00,
2013-02-04 14:40:00,25.6,4.0,29.58,WNW,284,22.0,22.0,39,0.00,BKN,,0.00,54.0,WeatherDisplay:10.37,2013-02-04 19:40:00,
2013-02-04 14:45:00,25.3,3.8,29.58,West,259,12.7,12.7,39,0.00,BKN,,0.00,67.0,WeatherDisplay:10.37,2013-02-04 19:45:00,
2013-02-04 14:50:00,25.3,3.8,29.58,WNW,300,15.0,15.0,39,0.00,BKN,,0.00,53.0,WeatherDisplay:10.37,2013-02-04 19:50:00,
2013-02-04 14:55:00,25.4,3.8,29.59,West,272,16.1,16.1,39,0.00,BKN,,0.00,62.0,WeatherDisplay:10.37,2013-02-04 19:55:00,
2013-02-04 15:00:00,25.5,3.9,29.59,West,265,6.9,6.9,39,0.00,BKN,,0.00,53.0,WeatherDisplay:10.37,2013-02-04 20:00:00,
2013-02-04 15:05:00,25.4,3.8,29.59,West,267,13.8,13.8,39,0.00,BKN,,0.00,62.0,WeatherDisplay:10.37,2013-02-04 20:05:00,
2013-02-04 15:10:00,25.4,3.8,29.59,NNW,330,5.0,5.0,39,0.00,BKN,,0.00,44.0,WeatherDisplay:10.37,2013-02-04 20:10:00,
2013-02-04 15:15:00,25.5,3.9,29.59,West,261,5.8,5.8,39,0.00,BKN,,0.00,39.0,WeatherDisplay:10.37,2013-02-04 20:15:00,
2013-02-04 15:20:00,25.4,4.4,29.59,West,260,11.5,11.5,40,0.00,BKN,,0.00,46.0,WeatherDisplay:10.37,2013-02-04 20:20:00,
2013-02-04 15:25:00,25.5,3.9,29.59,WSW,244,6.0,6.0,39,0.00,BKN,,0.00,62.0,WeatherDisplay:10.37,2013-02-04 20:25:00,
2013-02-04 15:30:00,25.6,3.5,29.59,NW,309,6.9,6.9,38,0.00,BKN,,0.00,39.0,WeatherDisplay:10.37,2013-02-04 20:30:00,
2013-02-04 15:35:00,25.7,4.1,29.59,South,188,11.5,11.5,39,0.00,BKN,,0.00,42.0,WeatherDisplay:10.37,2013-02-04 20:35:00,
2013-02-04 15:40:00,25.6,4.6,29.59,West,265,15.0,15.0,40,0.00,BKN,,0.00,32.0,WeatherDisplay:10.37,2013-02-04 20:40:00,
2013-02-04 15:45:00,25.5,5.0,29.59,West,277,11.5,11.5,41,0.00,BKN,,0.00,32.0,WeatherDisplay:10.37,2013-02-04 20:45:00,
2013-02-04 15:50:00,25.4,4.4,29.59,WNW,298,16.1,16.1,40,0.00,BKN,,0.00,33.0,WeatherDisplay:10.37,2013-02-04 20:50:00,
2013-02-04 15:55:00,25.2,4.2,29.59,West,264,17.3,17.3,40,0.00,BKN,,0.00,28.0,WeatherDisplay:10.37,2013-02-04 20:55:00,
2013-02-04 16:00:00,25.1,3.6,29.59,WSW,240,11.5,11.5,39,0.00,BKN,,0.00,26.0,WeatherDisplay:10.37,2013-02-04 21:00:00,
2013-02-04 16:05:00,24.9,3.9,29.59,West,272,12.0,12.0,40,0.00,BKN,,0.00,26.0,WeatherDisplay:10.37,2013-02-04 21:05:00,
2013-02-04 16:10:00,24.9,3.9,29.59,NW,320,9.0,9.0,40,0.00,BKN,,0.00,23.0,WeatherDisplay:10.37,2013-02-04 21:10:00,
2013-02-04 16:15:00,24.8,3.3,29.59,WNW,290,12.7,12.7,39,0.00,BKN,,0.00,21.0,WeatherDisplay:10.37,2013-02-04 21:15:00,
2013-02-04 16:20:00,24.8,3.3,29.59,West,276,2.3,2.3,39,0.00,BKN,,0.00,21.0,WeatherDisplay:10.37,2013-02-04 21:20:00,
2013-02-04 16:25:00,24.7,3.2,29.60,WNW,291,4.6,4.6,39,0.00,BKN,,0.00,19.0,WeatherDisplay:10.37,2013-02-04 21:25:00,
2013-02-04 16:30:00,24.5,3.0,29.60,WSW,258,3.5,3.5,39,0.00,BKN,,0.00,16.0,WeatherDisplay:10.37,2013-02-04 21:30:00,
2013-02-04 16:35:00,24.3,3.4,29.60,West,259,3.5,3.5,40,0.00,BKN,,0.00,14.0,WeatherDisplay:10.37,2013-02-04 21:35:00,
2013-02-04 16:40:00,24.3,3.4,29.60,NW,310,5.8,5.8,40,0.00,BKN,,0.00,12.0,WeatherDisplay:10.37,2013-02-04 21:40:00,
2013-02-04 16:45:00,24.2,3.3,29.60,West,277,7.0,7.0,40,0.00,SCT,,0.00,11.0,WeatherDisplay:10.37,2013-02-04 21:45:00,
2013-02-04 16:50:00,24.1,3.2,29.60,West,265,10.4,10.4,40,0.00,SCT,,0.00,9.0,WeatherDisplay:10.37,2013-02-04 21:50:00,
2013-02-04 16:55:00,24.0,3.1,29.61,WNW,291,5.0,5.0,40,0.00,CLR,,0.00,7.0,WeatherDisplay:10.37,2013-02-04 21:55:00,
2013-02-04 17:00:00,24.1,3.2,29.61,West,265,9.2,9.2,40,0.00,CLR,,0.00,5.0,WeatherDisplay:10.37,2013-02-04 22:00:00,
2013-02-04 17:05:00,23.9,3.0,29.61,WNW,297,6.9,6.9,40,0.00,CLR,,0.00,0.0,WeatherDisplay:10.37,2013-02-04 22:05:00,
2013-02-04 17:10:00,23.7,3.4,29.62,WNW,294,5.8,5.8,41,0.00,CLR,,0.00,0.0,WeatherDisplay:10.37,2013-02-04 22:10:00,
2013-02-04 17:15:00,23.4,3.1,29.62,West,277,3.5,3.5,41,0.00,CLR,,0.00,0.0,WeatherDisplay:10.37,2013-02-04 22:15:00,
2013-02-04 17:20:00,23.2,4.0,29.62,WNW,299,3.5,3.5,43,0.00,CLR,,0.00,0.0,WeatherDisplay:10.37,2013-02-04 22:20:00,
2013-02-04 17:25:00,23.0,3.3,29.62,WNW,290,4.6,4.6,42,0.00,CLR,,0.00,0.0,WeatherDisplay:10.37,2013-02-04 22:25:00,
2013-02-04 17:30:00,23.1,2.9,29.62,WNW,296,3.5,3.5,41,0.00,CLR,,0.00,0.0,WeatherDisplay:10.37,2013-02-04 22:30:00,
2013-02-04 17:35:00,23.1,3.4,29.62,WNW,284,5.8,5.8,42,0.00,CLR,,0.00,0.0,WeatherDisplay:10.37,2013-02-04 22:35:00,
2013-02-04 17:40:00,23.1,3.4,29.64,WNW,294,3.5,3.5,42,0.00,CLR,,0.00,0.0,WeatherDisplay:10.37,2013-02-04 22:40:00,
2013-02-04 17:45:00,22.9,2.7,29.64,West,266,5.8,5.8,41,0.00,CLR,,0.00,0.0,WeatherDisplay:10.37,2013-02-04 22:45:00,
2013-02-04 17:50:00,22.8,2.6,29.64,WNW,298,7.0,7.0,41,0.00,CLR,,0.00,0.0,WeatherDisplay:10.37,2013-02-04 22:50:00,
2013-02-04 17:55:00,22.8,2.6,29.64,WNW,289,4.6,4.6,41,0.00,CLR,,0.00,0.0,WeatherDisplay:10.37,2013-02-04 22:55:00,
2013-02-04 18:00:00,22.5,2.3,29.64,NW,304,4.6,4.6,41,0.00,CLR,,0.00,0.0,WeatherDisplay:10.37,2013-02-04 23:00:00,
2013-02-04 18:05:00,22.4,2.7,29.64,WNW,295,3.5,3.5,42,0.00,CLR,,0.00,0.0,WeatherDisplay:10.37,2013-02-04 23:05:00,
2013-02-04 18:10:00,22.4,2.2,29.65,WNW,296,3.5,3.5,41,0.00,CLR,,0.00,0.0,WeatherDisplay:10.37,2013-02-04 23:10:00,
2013-02-04 18:15:00,22.1,1.9,29.65,WNW,296,2.3,2.3,41,0.00,CLR,,0.00,0.0,WeatherDisplay:10.37,2013-02-04 23:15:00,
2013-02-04 18:20:00,22.0,1.9,29.65,West,278,9.2,9.2,41,0.00,CLR,,0.00,0.0,WeatherDisplay:10.37,2013-02-04 23:20:00,
2013-02-04 18:25:00,22.1,1.9,29.65,West,280,6.9,6.9,41,0.00,CLR,,0.00,0.0,WeatherDisplay:10.37,2013-02-04 23:25:00,
2013-02-04 18:30:00,22.1,1.9,29.65,WNW,303,10.4,10.4,41,0.00,CLR,,0.00,0.0,WeatherDisplay:10.37,2013-02-04 23:30:00,
2013-02-04 18:35:00,22.0,2.4,29.65,WNW,284,4.6,4.6,42,0.00,CLR,,0.00,0.0,WeatherDisplay:10.37,2013-02-04 23:35:00,
2013-02-04 18:41:00,21.8,2.7,29.66,WNW,292,5.8,5.8,43,0.00,CLR,,0.00,0.0,WeatherDisplay:10.37,2013-02-04 23:41:00,
2013-02-04 18:46:00,21.8,2.7,29.66,WSW,257,11.5,11.5,43,0.00,CLR,,0.00,0.0,WeatherDisplay:10.37,2013-02-04 23:46:00,
2013-02-04 18:51:00,21.8,2.7,29.66,West,269,10.4,10.4,43,0.00,CLR,,0.00,0.0,WeatherDisplay:10.37,2013-02-04 23:51:00,
2013-02-04 18:56:00,21.7,2.6,29.67,West,269,10.4,10.4,43,0.00,CLR,,0.00,0.0,WeatherDisplay:10.37,2013-02-04 23:56:00,
2013-02-04 19:01:00,21.6,2.5,29.67,WNW,285,15.0,15.0,43,0.00,CLR,,0.00,0.0,WeatherDisplay:10.37,2013-02-05 00:01:00,
2013-02-04 19:06:00,21.5,2.9,29.67,WSW,240,9.2,9.2,44,0.00,CLR,,0.00,0.0,WeatherDisplay:10.37,2013-02-05 00:06:00,
2013-02-04 19:11:00,21.3,2.7,29.68,WNW,302,15.0,15.0,44,0.00,CLR,,0.00,0.0,WeatherDisplay:10.37,2013-02-05 00:11:00,
2013-02-04 19:16:00,21.1,2.6,29.68,NW,318,10.4,10.4,44,0.00,CLR,,0.00,0.0,WeatherDisplay:10.37,2013-02-05 00:16:00,
2013-02-04 19:21:00,21.0,3.0,29.68,WNW,284,11.5,11.5,45,0.00,CLR,,0.00,0.0,WeatherDisplay:10.37,2013-02-05 00:21:00,
2013-02-04 19:26:00,20.8,2.8,29.69,West,280,9.2,9.2,45,0.00,CLR,,0.00,0.0,WeatherDisplay:10.37,2013-02-05 00:26:00,
2013-02-04 19:31:00,20.7,3.2,29.69,WNW,284,3.5,3.5,46,0.00,CLR,,0.00,0.0,WeatherDisplay:10.37,2013-02-05 00:31:00,
2013-02-04 19:36:00,20.5,3.0,29.70,NW,319,13.8,13.8,46,0.00,CLR,,0.00,0.0,WeatherDisplay:10.37,2013-02-05 00:36:00,
2013-02-04 19:41:00,20.4,3.3,29.70,West,265,12.7,12.7,47,0.00,CLR,,0.00,0.0,WeatherDisplay:10.37,2013-02-05 00:41:00,
2013-02-04 19:46:00,20.2,3.2,29.70,West,275,9.2,9.2,47,0.00,CLR,,0.00,0.0,WeatherDisplay:10.37,2013-02-05 00:46:00,
2013-02-04 19:51:00,20.0,3.0,29.70,WNW,291,11.5,11.5,47,0.00,CLR,,0.00,0.0,WeatherDisplay:10.37,2013-02-05 00:51:00,
2013-02-04 19:56:00,19.9,2.9,29.70,WNW,299,11.5,11.5,47,0.00,CLR,,0.00,0.0,WeatherDisplay:10.37,2013-02-05 00:56:00,
2013-02-04 20:01:00,19.7,3.2,29.70,WNW,292,5.8,5.8,48,0.00,CLR,,0.00,0.0,WeatherDisplay:10.37,2013-02-05 01:01:00,
2013-02-04 20:06:00,19.7,3.2,29.71,WNW,287,17.3,17.3,48,0.00,CLR,,0.00,0.0,WeatherDisplay:10.37,2013-02-05 01:06:00,
2013-02-04 20:11:00,19.5,3.0,29.71,WNW,296,12.0,12.0,48,0.00,CLR,,0.00,0.0,WeatherDisplay:10.37,2013-02-05 01:11:00,
2013-02-04 20:16:00,19.3,2.8,29.71,WSW,258,16.1,16.1,48,0.00,CLR,,0.00,0.0,WeatherDisplay:10.37,2013-02-05 01:16:00,
2013-02-04 20:21:00,19.2,2.7,29.71,WNW,288,13.8,13.8,48,0.00,CLR,,0.00,0.0,WeatherDisplay:10.37,2013-02-05 01:21:00,
2013-02-04 20:26:00,19.0,3.0,29.71,WNW,294,10.4,10.4,49,0.00,CLR,,0.00,0.0,WeatherDisplay:10.37,2013-02-05 01:26:00,
2013-02-04 20:31:00,18.8,2.8,29.71,WNW,284,10.4,10.4,49,0.00,CLR,,0.00,0.0,WeatherDisplay:10.37,2013-02-05 01:31:00,
2013-02-04 20:36:00,18.6,2.6,29.71,West,264,11.5,11.5,49,0.00,CLR,,0.00,0.0,WeatherDisplay:10.37,2013-02-05 01:36:00,
2013-02-04 20:41:00,18.4,2.8,29.71,West,271,6.9,6.9,50,0.00,CLR,,0.00,0.0,WeatherDisplay:10.37,2013-02-05 01:41:00,
2013-02-04 20:46:00,18.3,2.3,29.71,West,261,3.5,3.5,49,0.00,CLR,,0.00,0.0,WeatherDisplay:10.37,2013-02-05 01:46:00,
2013-02-04 20:51:00,18.1,2.6,29.72,SSW,209,10.4,10.4,50,0.00,CLR,,0.00,0.0,WeatherDisplay:10.37,2013-02-05 01:51:00,
2013-02-04 20:56:00,18.1,2.1,29.72,WNW,290,3.5,3.5,49,0.00,CLR,,0.00,0.0,WeatherDisplay:10.37,2013-02-05 01:56:00,
2013-02-04 21:01:00,18.0,2.5,29.72,West,279,6.9,6.9,50,0.00,CLR,,0.00,0.0,WeatherDisplay:10.37,2013-02-05 02:01:00,
2013-02-04 21:06:00,17.9,1.9,29.72,West,271,11.0,11.0,49,0.00,CLR,,0.00,0.0,WeatherDisplay:10.37,2013-02-05 02:06:00,
2013-02-04 21:11:00,17.9,1.5,29.72,West,265,12.7,12.7,48,0.00,CLR,,0.00,0.0,WeatherDisplay:10.37,2013-02-05 02:11:00,
2013-02-04 21:16:00,17.9,1.5,29.72,West,271,3.5,3.5,48,0.00,CLR,,0.00,0.0,WeatherDisplay:10.37,2013-02-05 02:16:00,
2013-02-04 21:21:00,17.9,1.5,29.72,SW,229,7.0,7.0,48,0.00,CLR,,0.00,0.0,WeatherDisplay:10.37,2013-02-05 02:21:00,
2013-02-04 21:26:00,17.7,1.3,29.72,SSW,194,10.4,10.4,48,0.00,CLR,,0.00,0.0,WeatherDisplay:10.37,2013-02-05 02:26:00,
2013-02-04 21:31:00,17.5,1.6,29.72,WNW,295,3.5,3.5,49,0.00,CLR,,0.00,0.0,WeatherDisplay:10.37,2013-02-05 02:31:00,
2013-02-04 21:36:00,17.2,1.3,29.73,West,268,11.5,11.5,49,0.00,CLR,,0.00,0.0,WeatherDisplay:10.37,2013-02-05 02:36:00,
2013-02-04 21:41:00,17.0,1.1,29.73,WNW,290,4.6,4.6,49,0.00,CLR,,0.00,0.0,WeatherDisplay:10.37,2013-02-05 02:41:00,
2013-02-04 21:46:00,16.9,1.4,29.73,WNW,295,5.8,5.8,50,0.00,CLR,,0.00,0.0,WeatherDisplay:10.37,2013-02-05 02:46:00,
2013-02-04 21:51:00,16.7,1.3,29.73,West,268,6.9,6.9,50,0.00,CLR,,0.00,0.0,WeatherDisplay:10.37,2013-02-05 02:51:00,
2013-02-04 21:56:00,16.7,1.3,29.73,WNW,302,4.6,4.6,50,0.00,CLR,,0.00,0.0,WeatherDisplay:10.37,2013-02-05 02:56:00,
2013-02-04 22:01:00,16.6,1.2,29.73,WNW,302,6.9,6.9,50,0.00,CLR,,0.00,0.0,WeatherDisplay:10.37,2013-02-05 03:01:00,
2013-02-04 22:06:00,16.6,0.7,29.73,NNW,329,3.5,3.5,49,0.00,CLR,,0.00,0.0,WeatherDisplay:10.37,2013-02-05 03:06:00,
2013-02-04 22:11:00,16.5,1.1,29.73,West,281,2.0,2.0,50,0.00,CLR,,0.00,0.0,WeatherDisplay:10.37,2013-02-05 03:11:00,
2013-02-04 22:16:00,16.5,1.1,29.73,West,265,6.9,6.9,50,0.00,CLR,,0.00,0.0,WeatherDisplay:10.37,2013-02-05 03:16:00,
2013-02-04 22:21:00,16.5,0.6,29.74,SW,223,3.5,3.5,49,0.00,CLR,,0.00,0.0,WeatherDisplay:10.37,2013-02-05 03:21:00,
2013-02-04 22:26:00,16.5,0.6,29.74,WNW,292,9.2,9.2,49,0.00,CLR,,0.00,0.0,WeatherDisplay:10.37,2013-02-05 03:26:00,
2013-02-04 22:31:00,16.5,1.1,29.74,WSW,242,5.8,5.8,50,0.00,CLR,,0.00,0.0,WeatherDisplay:10.37,2013-02-05 03:31:00,
2013-02-04 22:36:00,16.5,0.6,29.75,West,271,4.6,4.6,49,0.00,CLR,,0.00,0.0,WeatherDisplay:10.37,2013-02-05 03:36:00,
2013-02-04 22:41:00,16.5,0.6,29.75,NW,307,3.5,3.5,49,0.00,CLR,,0.00,0.0,WeatherDisplay:10.37,2013-02-05 03:41:00,
2013-02-04 22:46:00,16.4,0.5,29.75,West,276,5.8,5.8,49,0.00,CLR,,0.00,0.0,WeatherDisplay:10.37,2013-02-05 03:46:00,
2013-02-04 22:51:00,16.4,0.5,29.75,West,276,6.9,6.9,49,0.00,CLR,,0.00,0.0,WeatherDisplay:10.37,2013-02-05 03:51:00,
2013-02-04 22:56:00,16.4,0.1,29.75,WSW,255,3.5,3.5,48,0.00,CLR,,0.00,0.0,WeatherDisplay:10.37,2013-02-05 03:56:00,
2013-02-04 23:01:00,16.3,0.0,29.75,SW,232,5.8,5.8,48,0.00,CLR,,0.00,0.0,WeatherDisplay:10.37,2013-02-05 04:01:00,
2013-02-04 23:06:00,16.2,0.4,29.75,WNW,284,6.9,6.9,49,0.00,CLR,,0.00,0.0,WeatherDisplay:10.37,2013-02-05 04:06:00,
2013-02-04 23:11:00,16.1,0.3,29.75,WSW,256,9.2,9.2,49,0.00,CLR,,0.00,0.0,WeatherDisplay:10.37,2013-02-05 04:11:00,
2013-02-04 23:16:00,16.0,0.2,29.75,WSW,242,9.2,9.2,49,0.00,CLR,,0.00,0.0,WeatherDisplay:10.37,2013-02-05 04:16:00,
2013-02-04 23:21:00,15.9,0.1,29.76,WNW,299,9.2,9.2,49,0.00,CLR,,0.00,0.0,WeatherDisplay:10.37,2013-02-05 04:21:00,
2013-02-04 23:26:00,15.9,0.1,29.76,West,268,5.8,5.8,49,0.00,CLR,,0.00,0.0,WeatherDisplay:10.37,2013-02-05 04:26:00,
2013-02-04 23:31:00,15.9,0.1,29.76,WSW,252,12.7,12.7,49,0.00,CLR,,0.00,0.0,WeatherDisplay:10.37,2013-02-05 04:31:00,
2013-02-04 23:36:00,15.8,0.0,29.76,WNW,284,4.0,4.0,49,0.00,CLR,,0.00,0.0,WeatherDisplay:10.37,2013-02-05 04:36:00,
2013-02-04 23:41:00,15.7,-0.1,29.76,WSW,254,8.0,8.0,49,0.00,CLR,,0.00,0.0,WeatherDisplay:10.37,2013-02-05 04:41:00,
2013-02-04 23:47:00,15.7,-0.1,29.76,WNW,300,10.4,10.4,49,0.00,CLR,,0.00,0.0,WeatherDisplay:10.37,2013-02-05 04:47:00,
2013-02-04 23:52:00,15.7,-0.1,29.77,WNW,287,10.4,10.4,49,0.00,CLR,,0.00,0.0,WeatherDisplay:10.37,2013-02-05 04:52:00,
2013-02-04 23:57:00,15.6,0.2,29.77,West,280,10.4,10.4,50,0.00,CLR,,0.00,0.0,WeatherDisplay:10.37,2013-02-05 04:57:00,